Lapse_Rate
7.3 6.5 6.5 6.5 6.5 6.4 6.5 6.6 6.5 6.5 6.4 6.5 6.5 6.5 6.5 7.1 7.2 7.2 7.3 7.5 7.6 7.8 8.5 8.8 9.2 9.4 9.5 9.4 9.4 9.5 8.9 9.4 9.5 8.8 8.4 7.7 5.5 6.6 6.2 7.9 8.5 9.4 9.4 9.5
6.4 6.5 6.5 6.5 6.5 6.5 6.5 6.5 6.5 6.5 6.5 6.5 6.5 6.5 6.5 6.8 7.0 7.4 7.3 7.6 7.8 8.1 8.3 8.7 9.1 9.3 9.3 9.2 9.2 9.3 9.3 8.9 8.3 7.7 7.4 8.7 8.6 7.7 7.5 8.4 9.2 9.5 9.4 9.2
6.6 6.5 6.5 6.5 6.5 6.5 6.5 6.5 6.5 6.4 6.5 6.5 6.5 6.5 6.5 6.6 7.2 7.5 7.7 8.0 8.1 7.9 7.9 8.6 8.7 9.1 9.3 9.2 9.1 9.3 9.3 8.3 8.3 8.2 9.2 6.8 8.6 6.9 6.2 9.0 9.6 8.9 8.8 8.3
6.5 6.6 6.5 6.5 6.5 6.5 6.5 6.4 6.5 6.5 6.5 6.5 6.5 6.5 6.5 6.5 6.5 6.6 7.4 7.7 7.9 8.2 8.5 8.6 8.9 9.0 9.3 9.2 9.4 9.2 9.3 9.1 9.2 9.3 9.3 8.6 6.3 5.7 8.5 9.3 9.0 9.5 9.5 9.5
6.5 6.5 6.5 6.5 6.5 6.5 6.4 6.5 6.5 6.5 6.5 6.5 6.5 6.5 6.5 6.5 6.5 6.5 7.0 7.5 7.9 8.4 8.5 8.5 8.4 8.9 9.0 9.3 9.4 9.4 9.1 9.3 9.4 9.1 9.0 9.4 8.1 7.2 9.4 7.9 9.0 8.2 9.1 8.6
6.5 7.2 6.5 6.5 6.6 6.5 6.5 6.5 6.5 6.5 6.5 6.6 6.5 6.5 6.5 6.5 6.5 6.5 6.9 7.5 7.9 8.2 8.5 8.7 8.7 9.1 9.2 9.4 9.4 9.4 7.9 6.8 8.4 7.7 7.6 9.1 9.1 9.1 7.2 8.7 7.5 7.0 6.9 6.5
6.5 6.5 6.5 6.8 6.5 6.5 6.4 6.5 6.5 6.6 6.6 6.5 6.5 6.6 6.5 6.5 6.5 6.5 6.7 7.3 7.8 8.2 8.5 8.6 8.7 8.8 9.0 9.0 9.2 9.3 8.7 6.9 7.3 7.1 8.5 8.2 9.2 9.1 8.9 8.9 9.1 7.4 9.3 9.4
6.5 6.5 6.5 6.5 6.5 6.5 6.5 6.5 6.5 6.5 6.5 6.5 6.5 6.5 6.5 6.6 7.1 7.4 7.6 7.8 8.0 8.2 8.6 8.6 8.7 8.8 8.8 9.0 9.2 9.2 9.0 8.8 8.8 8.6 8.7 8.6 8.2 9.4 9.4 9.1 9.3 9.4 9.5 9.6
6.5 6.5 6.5 6.5 6.5 6.5 6.5 6.5 6.5 6.5 6.5 6.5 6.5 6.5 6.5 6.5 6.5 6.9 7.3 7.5 7.7 8.0 8.3 8.5 8.7 8.9 8.9 9.0 9.0 9.1 9.0 9.2 9.3 9.4 9.3 9.0 8.6 8.1 9.3 9.4 9.4 9.6 9.4 9.4
6.5 6.5 6.5 6.5 6.7 6.6 6.5 6.4 6.5 6.4 6.5 6.5 6.5 6.5 6.5 6.5 6.5 6.5 6.7 7.3 7.7 8.1 8.2 8.5 8.7 9.0 9.1 9.3 9.3 9.3 9.2 9.2 9.3 9.5 9.5 9.6 9.4 9.4 9.5 9.5 9.3 9.3 9.4 8.8
6.5 6.6 6.6 6.5 6.5 6.5 6.5 6.6 6.5 6.5 6.5 6.5 6.6 6.5 6.5 6.5 6.5 6.5 6.9 7.4 7.8 8.0 8.3 8.4 8.7 8.9 9.2 9.2 9.3 9.2 9.2 9.3 9.3 9.5 9.4 9.4 9.5 9.6 9.6 9.4 8.3 7.4 7.7 5.8
6.5 6.5 6.5 6.5 6.5 6.5 6.4 6.5 6.5 6.5 6.5 6.4 6.5 6.5 6.5 6.5 6.5 7.1 7.1 7.6 8.0 8.2 8.4 8.5 8.7 8.8 8.9 9.0 9.1 9.2 9.3 9.4 9.5 9.2 9.3 9.3 9.5 9.4 7.1 6.1 4.5 4.8 4.7 5.6
6.6 6.5 6.5 6.5 6.5 6.5 6.5 6.5 6.5 6.5 6.5 6.5 6.5 6.5 6.5 6.7 6.7 7.2 7.2 7.5 7.8 8.0 8.2 8.5 8.7 8.6 8.7 8.9 8.9 9.3 9.3 9.3 9.4 9.3 9.4 9.3 8.3 7.6 4.4 4.2 4.0 4.1 4.3 4.3
6.0 6.6 6.5 6.5 6.5 6.6 6.5 6.5 6.5 6.5 6.5 6.5 6.5 6.5 6.5 6.4 6.5 6.9 7.4 7.7 7.9 8.0 8.1 8.5 8.6 8.6 8.6 8.7 8.8 8.9 9.1 9.3 9.3 9.3 9.3 8.8 7.7 6.0 5.2 3.8 2.6 2.5 2.8 3.2
6.5 6.5 6.6 6.5 6.6 6.5 6.5 6.5 6.6 6.5 6.6 6.5 6.5 6.5 6.5 6.5 6.5 7.0 7.6 7.7 7.8 7.9 8.1 8.3 8.4 8.5 8.6 8.6 8.8 9.0 9.2 9.2 9.3 8.9 7.3 6.2 6.0 5.1 3.3 1.8 2.2 2.6 3.6 4.4
6.5 6.5 6.5 6.5 6.5 6.6 6.5 6.5 6.5 6.5 6.5 6.5 6.5 6.5 6.5 7.1 7.4 7.3 7.5 7.6 7.6 7.8 8.0 8.2 8.3 8.5 8.5 8.6 8.7 8.9 8.9 8.8 8.4 8.1 6.7 4.5 3.2 2.4 2.8 3.4 4.1 4.4 4.4 4.5
6.5 6.5 6.5 6.5 6.5 6.5 6.5 6.5 6.5 6.5 6.5 6.5 6.5 6.5 6.5 6.5 6.7 7.2 7.5 7.7 7.7 7.9 8.0 8.2 8.4 8.5 8.6 8.7 8.9 8.8 8.7 6.9 5.1 4.5 4.0 3.6 3.4 3.4 4.4 4.7 4.9 4.9 4.9 4.5
6.5 6.5 6.5 6.5 6.5 6.5 6.5 6.5 6.5 6.5 6.5 6.5 6.5 6.5 6.5 6.8 7.5 7.9 8.2 7.8 7.7 7.9 8.1 8.3 8.6 8.6 8.8 9.1 9.2 9.0 7.1 5.2 4.5 4.7 4.6 5.0 6.0 5.2 5.5 5.9 5.9 7.0 7.9 7.9
6.5 6.5 6.5 6.5 6.5 6.5 6.5 6.5 6.5 6.5 6.5 6.5 6.5 6.5 7.0 7.4 7.6 7.3 8.1 8.3 8.1 8.3 8.6 8.7 9.0 9.0 8.9 8.8 8.8 7.0 6.0 5.1 5.3 5.1 5.4 7.3 7.3 7.6 7.6 8.4 8.8 9.2 9.1 9.2
6.5 6.5 6.5 6.5 6.5 6.5 6.5 6.5 7.1 6.5 6.4 6.6 6.7 6.5 6.6 7.2 6.5 6.5 8.1 8.4 8.5 8.7 8.8 8.8 9.0 9.2 9.1 8.9 8.8 6.9 5.8 5.6 5.5 5.5 5.6 6.8 8.2 7.8 7.1 7.4 8.0 8.7 9.3 9.3
6.5 6.5 6.5 6.5 6.5 6.4 6.5 6.6 7.3 6.6 6.5 6.8 7.3 7.1 7.1 6.5 7.1 7.9 8.4 8.3 8.6 8.7 8.7 8.9 9.0 8.9 8.8 8.7 8.0 6.8 7.2 6.3 5.4 5.3 5.7 6.8 7.2 6.9 6.8 6.8 7.5 8.2 7.9 7.8
6.5 6.5 6.5 6.5 6.5 6.5 6.9 6.7 6.6 6.6 7.3 7.2 7.4 7.4 7.4 7.6 7.9 7.9 8.2 8.3 8.5 8.6 8.7 8.9 8.7 8.6 8.7 7.9 6.5 6.7 6.5 5.1 5.0 5.4 5.6 6.4 7.2 9.1 7.4 6.3 7.0 7.3 7.9 8.4
6.5 6.4 6.5 6.5 6.5 6.6 7.2 7.0 7.6 7.9 7.2 7.4 7.4 7.9 7.8 7.9 7.8 8.0 8.2 8.3 8.6 8.6 8.7 9.0 8.7 8.6 8.2 7.3 6.6 5.4 4.3 4.8 5.2 5.7 6.2 7.3 7.6 7.1 6.4 6.6 7.4 9.2 9.1 9.2
6.6 6.7 6.5 6.5 6.5 6.6 7.2 7.7 8.0 7.9 7.6 7.5 8.0 7.9 8.1 8.0 8.1 8.3 8.5 8.6 8.6 8.7 8.8 8.8 8.6 8.3 8.0 7.7 6.4 4.4 4.6 5.1 5.6 6.0 6.4 7.7 8.4 8.1 8.0 9.6 9.5 9.4 9.3 9.2
6.5 6.5 6.5 6.5 6.5 6.9 7.4 7.6 7.8 7.9 7.9 8.0 8.0 7.9 7.8 8.1 8.1 8.3 8.3 8.6 8.9 9.1 9.0 8.9 8.4 7.1 7.1 6.7 6.4 5.4 5.0 5.5 7.1 7.3 8.8 9.1 9.2 9.1 9.0 7.6 6.8 9.2 4.7 4.2
6.7 6.5 6.5 6.5 6.8 6.8 6.8 7.7 8.0 7.8 7.8 7.9 6.6 7.0 8.2 8.2 8.1 8.4 8.7 9.1 8.9 8.9 8.7 8.6 8.2 6.4 6.8 7.6 6.8 6.3 6.2 7.2 9.1 9.1 9.3 9.4 9.5 9.5 9.5 8.7 7.5 -2.7 -2.0 -3.6
Wind_Speed
14 14 4 14 24 29 14 7 12 13 12 10 8 15 16 14 13 13 9 12 9 11 11 12 11 13 11 13 12 11 10 11 8 7 3 9 8 8 7 14 17 11 9 10
11 10 10 18 5 4 7 11 8 13 11 4 6 17 15 14 12 11 11 10 11 11 14 13 13 14 13 13 13 11 11 11 6 6 5 3 1 4 7 11 10 11 12 8
15 12 14 6 9 9 10 6 11 8 11 7 12 11 16 13 11 12 12 15 16 13 14 13 14 15 13 12 13 13 12 12 11 10 9 6 5 3 5 6 7 9 12 11
14 12 8 8 10 9 7 18 9 11 8 6 7 3 15 16 14 11 11 12 12 14 15 15 14 15 14 13 15 13 13 13 12 11 9 9 6 5 6 7 5 5 9 10
14 7 11 11 7 5 4 26 10 10 19 19 22 2 18 19 17 16 14 12 14 17 14 15 15 14 15 15 14 13 13 12 10 12 8 9 8 8 7 5 4 6 4 10
14 7 7 2 4 7 15 10 11 12 15 3 14 5 11 16 17 18 13 12 12 17 16 15 16 12 14 13 14 14 13 11 11 11 10 8 7 4 2 1 1 2 2 4
19 14 6 7 9 7 12 15 10 8 8 8 12 18 9 18 15 15 18 14 12 13 15 14 16 15 13 15 13 14 14 12 12 11 10 10 8 6 4 5 6 2 4 4
17 16 14 12 9 10 14 8 3 3 4 15 6 5 12 20 15 15 16 16 16 16 16 15 13 13 13 14 13 13 15 13 13 11 10 8 8 7 7 9 5 6 6 5
21 18 21 18 13 12 5 14 16 12 14 8 8 12 9 17 16 16 16 16 14 12 16 17 16 15 14 13 13 12 13 13 13 13 10 10 9 9 7 2 2 7 5 6
17 14 16 15 8 12 14 8 12 5 4 7 10 11 15 17 18 16 15 16 16 14 14 14 13 15 14 14 12 11 11 11 12 12 11 10 10 9 7 6 6 6 7 7
26 15 18 16 14 16 11 12 3 8 9 2 9 9 17 19 18 17 16 16 18 17 15 13 13 12 12 12 12 11 11 11 10 10 9 8 9 8 6 5 5 8 9 10
28 13 13 18 17 17 13 15 14 12 9 5 7 13 17 19 19 18 16 17 18 16 15 13 11 12 11 11 11 11 10 10 9 8 4 5 2 4 12 10 10 9 9 9
23 21 11 19 19 12 10 16 16 16 12 7 3 13 18 20 18 18 17 18 15 14 14 14 13 12 11 10 10 10 9 8 10 8 7 8 11 10 9 9 9 10 9 9
13 25 19 16 17 19 19 18 17 14 7 9 14 20 21 20 20 18 20 17 15 14 15 14 14 12 11 10 9 9 10 9 9 11 10 10 12 10 9 10 10 10 10 10
12 23 27 24 15 19 20 20 19 16 13 7 22 19 22 22 20 19 20 19 17 16 16 15 15 13 12 12 11 10 11 10 11 12 11 10 10 10 11 10 10 10 10 9
20 21 25 26 24 19 8 21 18 13 15 9 14 19 20 18 18 20 20 19 18 17 16 17 16 15 14 13 12 12 12 12 12 11 12 11 11 10 10 11 11 11 12 11
22 20 22 23 19 19 16 25 16 14 12 12 13 26 25 22 21 21 20 19 18 18 18 18 17 15 14 14 13 13 13 13 12 12 12 12 12 11 12 11 11 12 12 12
20 23 19 18 21 24 9 16 12 12 12 11 17 26 25 22 22 21 20 20 19 19 18 17 16 15 15 15 14 14 13 13 13 12 12 12 12 12 11 11 11 11 10 10
15 16 16 16 19 18 20 22 20 15 12 10 13 20 25 24 21 20 20 19 20 19 17 16 16 17 16 15 15 15 14 13 13 13 12 11 12 11 11 10 10 10 10 9
19 17 13 18 23 26 19 24 14 16 14 14 14 9 20 21 17 15 20 19 20 20 18 17 19 18 17 16 16 15 14 13 13 12 12 11 11 11 11 10 10 8 8 9
20 18 20 18 16 16 21 19 17 18 13 16 19 15 17 22 17 19 18 19 20 20 21 20 19 17 17 16 16 15 14 13 13 13 12 11 11 11 10 9 8 8 8 9
22 21 15 19 19 17 22 18 21 14 17 9 18 20 15 15 19 26 25 24 24 24 23 21 18 16 16 16 14 15 14 14 13 13 12 12 11 9 8 9 8 8 8 8
21 22 18 21 18 10 12 20 15 16 14 15 8 21 22 23 19 24 23 26 24 25 22 20 19 19 17 16 15 16 15 14 14 13 12 11 10 9 9 8 7 6 4 5
22 24 19 21 21 24 18 18 20 15 15 12 10 11 21 21 23 24 24 24 24 23 21 20 22 20 18 16 15 16 16 15 15 14 13 11 10 9 8 7 5 5 4 4
13 19 21 21 21 21 25 20 16 20 16 12 8 3 12 19 23 25 23 25 23 21 20 20 20 19 19 18 17 17 17 16 15 14 12 11 9 9 7 8 6 6 7 6
17 15 17 14 22 15 15 23 22 14 18 19 11 12 18 20 23 24 22 22 23 22 20 19 19 21 20 19 18 17 18 16 15 14 11 10 9 9 7 8 7 13 10 9
Wind_Direction
205 229 277 312 142 193 239 126 120 106 147 198 111 145 163 186 179 168 181 159 174 167 144 152 151 144 161 151 160 159 144 153 173 170 194 155 175 188 209 226 225 253 251 261
193 226 224 230 5 254 181 134 140 127 162 221 192 146 161 186 189 165 190 153 159 177 149 150 157 142 158 160 162 166 169 155 183 144 193 177 208 200 222 234 226 231 244 255
222 138 206 205 173 225 187 137 147 165 159 224 177 136 161 180 181 171 181 165 169 149 144 152 164 145 152 157 161 174 173 160 189 165 193 164 195 227 219 249 221 227 221 234
229 241 197 209 249 229 306 150 182 148 133 231 198 211 174 168 189 179 179 191 179 137 150 158 160 155 158 153 155 174 176 175 188 191 180 181 154 198 221 224 226 228 199 225
226 200 195 241 257 129 171 256 155 174 164 226 166 306 155 161 175 177 206 177 150 152 156 154 160 162 151 156 156 161 176 176 177 180 222 174 214 184 202 212 160 219 227 221
228 181 214 195 119 248 170 177 184 200 225 201 200 73 157 170 169 165 179 154 157 141 142 151 140 147 146 160 162 157 166 178 183 189 199 216 176 235 357 6 340 253 201 173
221 189 176 238 178 185 217 197 189 203 208 239 109 152 170 146 167 165 156 169 172 143 151 155 155 161 158 159 170 164 172 179 186 191 193 202 210 212 236 227 243 203 249 221
207 195 178 209 218 187 230 187 45 249 281 118 140 111 105 138 158 149 148 175 152 177 153 154 150 142 161 169 179 178 170 183 186 191 199 203 210 215 216 204 273 296 321 318
200 215 172 200 218 251 226 144 235 270 152 187 134 90 105 138 161 156 167 134 153 168 142 139 153 155 163 165 176 181 170 184 193 192 197 206 212 233 269 328 278 247 237 284
240 209 191 183 226 238 224 324 208 161 235 117 128 161 134 157 162 170 137 161 148 129 139 143 156 157 162 168 166 174 173 184 191 204 189 201 207 212 235 233 248 297 303 337
243 242 190 177 207 219 205 244 262 314 304 307 147 127 138 159 166 166 159 172 146 140 142 153 148 144 154 160 154 165 171 177 189 202 191 192 189 194 209 240 27 17 19 26
231 248 185 206 205 233 253 220 204 226 146 164 92 107 141 159 161 168 165 154 144 145 140 136 135 145 143 159 152 161 171 164 190 131 146 147 134 343 56 50 46 44 45 44
209 236 244 233 197 214 235 242 260 255 314 146 265 133 146 162 160 168 158 125 129 133 138 143 145 141 145 145 145 142 164 129 115 141 149 99 82 71 70 69 65 56 57 58
255 223 227 219 218 192 207 248 233 267 203 143 110 139 145 159 161 162 129 140 146 154 153 150 139 130 124 120 123 125 104 110 111 92 88 85 76 83 80 74 65 61 55 52
238 226 233 234 256 198 199 214 225 249 276 282 138 153 155 163 164 143 146 157 158 154 158 147 133 134 132 130 124 118 115 105 107 101 104 100 93 88 82 83 80 77 70 67
224 232 234 243 197 269 220 201 208 199 253 273 268 148 154 159 159 150 159 161 163 163 152 141 140 142 139 136 132 123 116 102 105 111 104 100 93 93 96 91 90 85 78 69
218 222 224 234 214 234 197 237 197 200 202 258 257 143 150 164 162 165 164 167 169 164 153 149 150 148 140 137 133 127 121 117 116 113 109 106 110 106 104 101 96 91 87 81
221 216 224 226 230 233 207 194 221 234 201 215 255 145 153 167 167 168 168 173 165 155 152 152 148 142 140 138 128 125 123 120 119 117 116 122 118 114 108 104 101 97 91 90
244 230 221 224 228 223 216 236 202 220 213 209 238 164 158 171 171 170 171 172 162 154 156 153 144 142 132 131 131 128 125 124 124 122 122 123 119 115 112 105 102 101 98 91
228 237 234 220 230 225 204 223 216 220 221 193 224 160 158 166 183 177 165 155 152 152 159 150 141 137 138 137 137 134 133 132 129 128 126 123 120 117 114 108 104 103 97 81
213 214 221 223 229 235 223 208 214 213 214 196 191 173 195 179 191 152 154 148 152 156 155 145 146 141 140 143 142 136 134 131 128 127 125 121 119 116 117 114 108 98 91 102
201 202 211 223 218 224 229 223 208 203 220 252 181 177 190 192 203 154 156 155 157 156 151 151 141 139 145 146 143 137 130 131 133 131 127 126 133 127 120 118 113 110 114 106
203 213 214 214 217 228 249 245 230 223 207 225 210 179 188 190 178 153 157 159 156 158 156 149 145 148 148 149 145 136 139 140 137 135 133 131 127 129 132 129 136 135 144 120
201 215 220 232 213 227 236 239 249 195 225 231 204 230 182 187 161 160 160 157 159 160 158 151 151 152 149 147 146 142 146 146 146 143 143 145 146 140 149 162 159 113 102 96
182 203 218 231 245 216 225 244 258 194 213 195 177 236 187 180 167 167 165 161 159 159 157 157 156 152 150 152 148 151 153 156 153 153 154 157 145 156 158 62 31 82 52 30
234 196 205 215 220 233 218 227 249 247 217 167 181 193 204 180 176 170 169 163 159 160 159 159 157 152 152 155 155 158 162 165 160 162 166 165 159 162 147 139 111 54 65 51